Location: Ferma
(41.9500°N, 44.5167°E)
Time: 08:20:52
(UTC+00:00)

Cosmos 220 Rocket - Pass Details

Date: 06 June 2022
Orbit: 572 x 614 km, 74.0° (Epoch: 02 July)

Event Time Altitude Azimuth Distance (km) Brightness Sun altitude
Exits shadow 17:43:27 15° 122° (ESE) 1,576 5.5 -10.9°
Maximum altitude 17:44:50 17° 98° (E) 1,463 5.5 -11.1°
Drops below altitude 10° 17:47:36 10° 56° (ENE) 1,885 6.4 -11.5°
Sets 17:50:24 0° 37° (NE) 2,793 7.5 -11.8°
